Location: Bieujac
(44.5398°N, 0.1549°W)
Time: 04:40:00
(UTC+00:00)

Centaur D AC-28 - Pass Details

Date: 17 November 2019
Orbit: 603 x 36452 km, 28.6° (Epoch: 05 December)

Event Time Altitude Azimuth Distance (km) Brightness Sun altitude
Exits shadow 03:39:24 17° 159° (SSE) 2,260 4.5 -35.4°
Drops below altitude 10° 03:44:30 10° 121° (ESE) 4,134 6.3 -34.5°
Sets 03:52:55 0° 106° (ESE) 7,740 8.1 -33.0°
